Tracking 23762 objects as of 19-Oct-2021
HD Live streaming from Space Station
objects crossing your sky now

CUTE-LASP

Track CUTE-LASP now!
10-day predictions


NORAD ID: 49263
Int'l Code: 2021-088D
Perigee: 556.7 km
Apogee: 581.3 km
Inclination: 97.6 °
Period: 95.9 minutes
Semi major axis: 6940 km
RCS: Unknown
Launch date: September 27, 2021
Source: United States (US)
Launch site: AIR FORCE WESTERN TEST RANGE (AFWTR)
aabbcc
Your satellite tracking list
Your tracking list is empty




NASA's NSSDC Master Catalog

Two Line Element Set (TLE):
1 49263U 21088D   21291.72915529  .00001762  00000-0  14000-3 0  9992
2 49263  97.6234 359.3800 0017735 174.1218 186.0217 15.01631160  3138
Source of the keplerian elements: AFSPC